[[{"header":{"parameterUnit":"m.s-1","parameterCategory":1,"la1":30.2991,"la2":30.254,"lo1":-89.0895,"lo2":-89.0444,"dy":0.0017,"dx":0.0017,"nx":28,"ny":28,"refTime":"2023-10-25T21:00:00:Z","depth":0,"parameterNumber":2,"parameterNumberName":"U-component_of_WINDS"},"data":[0,0,0,0,0,0,0,0,0,0,0,0,0,0,0,0,0,0,0,0,0,0,0,0,0,0,0,0,0,0,0,0,0,0,0,0,0,0,0,0,0,0,0,0,0,0,0,0,0,0,0,0,0,0,0,0,0,0,-5.8449,-5.845,0,-5.855,-5.8551,-5.8553,-5.8493,-5.849,-5.8487,-5.8484,-5.8589,-5.8594,-5.86,0,0,0,0,0,0,0,0,0,0,0,0,0,-5.8206,-5.821,-5.8449,-5.845,-5.8451,-5.855,-5.8551,-5.8553,-5.8493,-5.849,-5.8486,-5.8483,-5.8587,-5.8594,-5.86,0,0,0,0,0,0,0,0,0,0,0,0,0,-5.831,-5.8212,-5.8448,-5.8433,-5.8433,-5.855,-5.8551,-5.8553,-5.8494,-5.849,-5.8485,-5.8481,-5.8585,-5.8593,-5.8601,-5.8738,0,0,-5.8626,-5.863,0,0,0,0,0,0,0,0,-5.8304,-5.8319,-5.8434,-5.8435,-5.8434,-5.8504,-5.8504,-5.8615,-5.8495,-5.8471,-5.8484,-5.8479,-5.8564,-5.8574,-5.8603,-5.8743,-5.8748,-5.8627,-5.8632,-5.8635,-5.8638,0,0,0,0,0,0,0,-5.8297,-5.8314,-5.8489,-5.8436,-5.8436,-5.8422,-5.8432,-5.8525,-5.8541,-5.8473,-5.8469,-5.8481,-5.8564,-5.8595,-5.8605,-5.8749,-5.8627,-5.8634,-5.8639,-5.8642,-5.9011,-5.9015,0,0,0,0,0,0,-5.829,-5.8308,-5.8486,-5.8492,-5.8357,-5.843,-5.8441,-5.8486,-5.854,-5.8543,-5.8485,-5.8478,-5.8583,-5.8595,-5.8608,-5.8773,-5.8635,-5.8643,-5.8648,-5.9006,-5.9012,-5.9017,0,0,0,0,0,0,-5.8285,-5.8307,-5.8481,-5.8399,-5.842,-5.8439,-5.849,-5.8491,-5.8522,-5.8549,-5.8551,-5.8514,-5.858,-5.8596,-5.8707,-5.8776,-5.8647,-5.8654,-5.9,-5.9008,-5.9014,-5.9103,0,0,0,0,0,0,-5.8279,-5.8305,-5.8357,-5.8401,-5.8425,-5.8578,-5.8494,-5.8496,-5.8536,-5.8528,-5.8577,-5.858,-5.8578,-5.8695,-5.8715,-5.8785,-5.8661,-5.8994,-5.9003,-5.9012,-5.9094,-5.9113,-5.9129,0,0,0,0,0,-5.827,-5.8377,-5.8359,-5.8381,-5.8489,-5.8582,-5.8596,-5.859,-5.8542,-5.8594,-5.8612,-5.8579,-5.8766,-5.8707,-5.8729,-5.8802,-5.8989,-5.9001,-5.9011,-5.9087,-5.9109,-5.9128,0,0,0,0,0,0,-5.834,-5.8382,-5.8363,-5.8488,-5.8532,-5.8571,-5.8637,-5.8614,-5.8673,-5.8663,-5.8654,-5.8666,-5.8781,-5.8803,-5.8737,-5.8939,-5.887,-5.8886,-5.892,-5.8941,-5.8958,-5.8949,-5.8667,0,0,0,0,0,-5.837,-5.8441,-5.8475,-5.8581,-5.8605,-5.8618,-5.8657,-5.865,-5.8695,-5.8713,-5.8739,-5.8785,-5.8854,-5.8899,-5.8964,-5.9099,-5.9109,-5.916,-5.9177,-5.9191,-5.9204,-5.9278,-5.9302,-5.9053,-5.9053,-5.9053,0,0,-5.8432,-5.8464,-5.8509,-5.8596,-5.8629,-5.8704,-5.8633,-5.8714,-5.877,-5.8726,-5.8831,-5.8853,-5.8903,-5.9027,-5.9082,-5.9048,-5.9276,-5.9205,-5.9216,-5.9222,-5.9292,-5.9316,-5.9336,-5.906,-5.9059,-5.9058,0,0,-5.8582,-5.8614,-5.8707,-5.8743,-5.8794,-5.8803,-5.8826,-5.887,-5.8883,-5.8989,-5.8958,-5.9025,-5.9144,-5.9182,-5.9216,-5.9387,-5.9359,-5.9409,-5.9497,-5.957,-5.9589,-5.9606,-5.9667,-5.9689,-5.9422,-5.9423,-5.9423,0,-5.8653,-5.8763,-5.8757,-5.8842,-5.8882,-5.8847,-5.8942,-5.8977,-5.9047,-5.9076,-5.9038,-5.9188,-5.9219,-5.9352,-5.9394,-5.9423,-5.9449,-5.9401,-5.9587,-5.9604,-5.962,-5.9678,-5.9701,-5.9428,-5.9428,-5.9427,-5.9426,0,-5.8847,-5.8925,-5.8994,-5.9063,-5.9111,-5.92,-5.921,-5.9259,-5.925,-5.9263,-5.9373,-5.9411,-5.9483,-5.9515,-5.9505,-5.9647,-5.9625,-5.9587,-5.9517,-5.965,-5.9704,-5.9726,-5.9436,-5.9434,-5.9433,-5.9431,0,0,-5.9039,-5.9108,-5.9133,-5.9166,-5.9223,-5.9283,-5.9372,-5.9444,-5.9486,-5.9538,-5.9613,-5.9717,-5.9683,-5.9723,-5.9718,-5.9782,-5.9915,-5.9737,-5.9738,-5.9768,-6.0074,-6.0101,-6.0126,-5.9899,-5.9903,-5.9906,-6.007,0,-5.9193,-5.9347,-5.9347,-5.949,-5.9562,-5.9533,-5.9611,-5.9655,-5.9672,-5.9736,-5.9755,-5.9828,-5.9778,-5.9802,-5.9865,-5.9886,-5.9976,-5.9874,-5.9968,-5.9971,-5.9953,-6.0154,-6.0181,-6.0334,-6.0091,-6.0095,-6.0097,0,-5.939,-5.9449,-5.96,-5.9649,-5.9679,-5.9749,-5.9816,-5.9878,-5.9929,-5.9937,-5.9984,-5.997,-6.0063,-5.9993,-6.0121,-6.0051,-6.0091,-6.0108,-6.0114,-6.012,-6.004,-6.0164,-6.0382,-6.0404,-6.0131,-6.0128,-6.0125,0,-5.9515,-5.9632,-5.9737,-5.9766,-5.9826,-5.9876,-5.9904,-5.995,-5.9994,-6.0054,-6.0083,-6.0153,-6.0191,-6.0246,-6.0253,-6.0201,-6.0382,-6.0312,-6.0391,-6.0391,-6.0427,-6.0424,-6.0652,-6.0457,-6.0456,-6.0456,-6.0455,0,-5.9684,-5.9777,-5.9794,-5.9859,-5.9963,-5.9964,-6.0067,-6.0091,-6.0134,-6.0203,-6.0184,-6.025,-6.0256,-6.0324,-6.0331,-6.0436,-6.0454,-6.0463,-6.0463,-6.0463,-6.0462,-6.0486,-6.0475,-6.0462,-6.046,-6.0459,-6.0458,0,-5.9838,-5.9853,-5.9966,-6.0015,-6.003,-6.0105,-6.0147,-6.021,-6.0226,-6.0315,-6.0336,-6.0361,-6.0441,-6.0455,-6.0549,-6.0554,-6.0679,-6.067,-6.0662,-6.0659,-6.0737,-6.0729,-6.0986,-6.102,-6.0805,-6.0807,-6.0808,0,-5.9943,-6.0014,-6.0072,-6.0117,-6.0148,-6.0221,-6.0267,-6.0272,-6.0321,-6.0387,-6.0442,-6.052,-6.0583,-6.0713,-6.074,-6.0813,-6.0804,-6.089,-6.0814,-6.0813,-6.0804,-6.0798,-6.0806,-6.0903,-6.0905,-6.0907,-6.0909,0,-6.0128,-6.0134,-6.02,-6.0271,-6.0326,-6.0382,-6.0434,-6.0473,-6.0486,-6.0542,-6.0624,-6.0673,-6.0771,-6.0849,-6.0922,-6.0952,-6.0933,-6.0933,-6.0955,-6.0954,-6.0945,-6.095,-6.0699,-6.0926,-6.0924,-6.0923,-6.0922,-6.0921,-6.026,-6.0322,-6.0374,-6.0449,-6.049,-6.0541,-6.0602,-6.0628,-6.0696,-6.0776,-6.0776,-6.0866,-6.0919,-6.1016,-6.1051,-6.1122,-6.1095,-6.1126,-6.1134,-6.1141,-6.1148,-6.0937,-6.1136,-6.1136,-6.1135,-6.1135,-6.1134,0,-6.0443,-6.0475,-6.0545,-6.062,-6.0681,-6.066,-6.0719,-6.077,-6.085,-6.0901,-6.0964,-6.106,-6.1137,-6.1173,-6.1249,-6.13,-6.1293,-6.1319,-6.1314,-6.1322,-6.1169,-6.1141,-6.1324,-6.1324,-6.1324,-6.1323,-6.1323,-6.1323,-6.0545,-6.0649,-6.0662,-6.0788,-6.082,-6.0908,-6.0943,-6.0991,-6.1032,-6.114,-6.1204,-6.1227,-6.1273,-6.1353,-6.1424,-6.1433,-6.1461,-6.1491,-6.1496,-6.1351,-6.1332,-6.1314,-6.1288,-6.1498,-6.1498,-6.1642,-6.1644,-6.1645]},{"header":{"parameterUnit":"m.s-1","parameterCategory":1,"la1":30.2991,"la2":30.254,"lo1":-89.0895,"lo2":-89.0444,"dy":0.0017,"dx":0.0017,"nx":28,"ny":28,"refTime":"2023-10-25T21:00:00:Z","depth":0,"parameterNumber":3,"parameterNumberName":"V-component_of_WINDS"},"data":[0,0,0,0,0,0,0,0,0,0,0,0,0,0,0,0,0,0,0,0,0,0,0,0,0,0,0,0,0,0,0,0,0,0,0,0,0,0,0,0,0,0,0,0,0,0,0,0,0,0,0,0,0,0,0,0,0,0,0.9015,0.9016,0,0.91,0.9101,0.9102,0.9077,0.9075,0.9073,0.9072,0.9155,0.9159,0.9163,0,0,0,0,0,0,0,0,0,0,0,0,0,0.8831,0.8835,0.9015,0.9016,0.9017,0.91,0.9101,0.9102,0.9077,0.9075,0.9073,0.9071,0.9154,0.9159,0.9163,0,0,0,0,0,0,0,0,0,0,0,0,0,0.8913,0.8836,0.9015,0.9015,0.9016,0.91,0.9101,0.9103,0.9078,0.9075,0.9072,0.907,0.9153,0.9158,0.9164,0.9252,0,0,0.9182,0.9184,0,0,0,0,0,0,0,0,0.8909,0.892,0.9014,0.9015,0.9016,0.9075,0.9067,0.9153,0.9078,0.9054,0.9072,0.9069,0.9131,0.9138,0.916,0.9256,0.926,0.9182,0.9186,0.9188,0.919,0,0,0,0,0,0,0,0.8903,0.8916,0.9049,0.9015,0.9017,0.9011,0.9019,0.9083,0.9106,0.9056,0.9054,0.9065,0.9131,0.9154,0.9161,0.9261,0.9182,0.9187,0.9191,0.9193,0.9441,0.9444,0,0,0,0,0,0,0.8897,0.8912,0.9046,0.9051,0.8955,0.9016,0.9026,0.9059,0.9105,0.911,0.9067,0.9063,0.9146,0.9155,0.9164,0.9275,0.9188,0.9193,0.9197,0.9438,0.9442,0.9445,0,0,0,0,0,0,0.8893,0.8909,0.9042,0.8981,0.8998,0.9022,0.9059,0.9062,0.9085,0.9114,0.9117,0.9087,0.9144,0.9156,0.9232,0.9277,0.9196,0.9201,0.9434,0.9439,0.9443,0.9495,0,0,0,0,0,0,0.8888,0.8908,0.8941,0.8982,0.9001,0.9109,0.9062,0.9066,0.9096,0.9092,0.9133,0.9138,0.9143,0.9224,0.9238,0.9284,0.9206,0.943,0.9436,0.9442,0.9489,0.9501,0.9511,0,0,0,0,0,0.8881,0.895,0.8943,0.8959,0.9043,0.9111,0.9122,0.9128,0.9099,0.9134,0.9153,0.9136,0.927,0.9232,0.9248,0.9296,0.9427,0.9435,0.9441,0.9484,0.9498,0.951,0,0,0,0,0,0,0.891,0.8955,0.8947,0.9031,0.9068,0.9107,0.915,0.9142,0.9186,0.918,0.9184,0.9194,0.9273,0.9292,0.9248,0.9387,0.9345,0.9355,0.9372,0.9386,0.9396,0.939,0.9211,0,0,0,0,0,0.8927,0.8979,0.9015,0.9086,0.9105,0.9125,0.9154,0.9157,0.9194,0.9209,0.9233,0.927,0.9321,0.9354,0.9402,0.9492,0.9503,0.9533,0.9544,0.9553,0.9562,0.9616,0.9632,0.9468,0.9468,0.9468,0,0,0.896,0.8992,0.9023,0.9093,0.9121,0.9176,0.9138,0.9196,0.9237,0.9217,0.9292,0.9312,0.9353,0.9439,0.9477,0.9456,0.961,0.9562,0.9568,0.9573,0.9625,0.9641,0.9654,0.9473,0.9472,0.9471,0,0,0.9051,0.9078,0.9143,0.9174,0.922,0.9234,0.9249,0.9291,0.9305,0.938,0.9368,0.9418,0.9504,0.9536,0.9563,0.9673,0.9661,0.9688,0.9744,0.9797,0.981,0.9821,0.9864,0.9879,0.9697,0.9697,0.9698,0,0.9087,0.917,0.9177,0.9239,0.9271,0.9259,0.9326,0.9355,0.9413,0.9436,0.9413,0.9526,0.9552,0.9647,0.9675,0.9696,0.9716,0.9683,0.9808,0.9819,0.983,0.9871,0.9887,0.9701,0.97,0.97,0.97,0,0.9214,0.9272,0.9319,0.9379,0.9417,0.948,0.9499,0.9536,0.9536,0.9553,0.9633,0.9666,0.9723,0.9745,0.9743,0.9842,0.9828,0.9806,0.9764,0.9849,0.9888,0.9903,0.9706,0.9704,0.9703,0.9703,0,0,0.9321,0.939,0.9407,0.9437,0.9489,0.9534,0.9599,0.9658,0.9692,0.9733,0.979,0.9866,0.9848,0.988,0.9882,0.9929,1.0019,0.9902,0.9903,0.9925,1.0134,1.0152,1.017,1.0012,1.0014,1.0017,1.0132,0,0.9419,0.9534,0.9546,0.965,0.9706,0.9699,0.9756,0.9795,0.9814,0.9865,0.9884,0.9941,0.9911,0.9931,0.9976,0.9999,1.0062,0.999,1.0066,1.0068,1.0057,1.0189,1.0207,1.0314,1.0147,1.0149,1.0151,0,0.9546,0.9597,0.9708,0.9758,0.9782,0.9833,0.9891,0.9939,0.9985,0.9995,1.0034,1.0033,1.0102,1.0057,1.0154,1.0105,1.0137,1.0153,1.0158,1.0166,1.0116,1.0204,1.0348,1.0365,1.0174,1.0172,1.0171,0,0.9618,0.9713,0.9794,0.9819,0.9878,0.9916,0.9942,0.9985,1.0022,1.0072,1.0096,1.0153,1.0184,1.0229,1.0244,1.0209,1.0342,1.0297,1.0354,1.0354,1.0382,1.0381,1.0536,1.04,1.0399,1.0399,1.0399,0,0.9727,0.9796,0.9828,0.9877,0.9956,0.9969,1.0046,1.0071,1.0111,1.0166,1.0161,1.0213,1.0229,1.0284,1.0295,1.0377,1.039,1.0402,1.0404,1.0403,1.0402,1.0425,1.0419,1.0403,1.0402,1.0401,1.0401,0,0.982,0.9843,0.9931,0.9983,0.9998,1.0054,1.0098,1.0147,1.0167,1.0237,1.0254,1.0286,1.0351,1.0371,1.0447,1.0456,1.0552,1.0546,1.0537,1.0538,1.0596,1.0591,1.0772,1.0799,1.0643,1.0644,1.0645,0,0.9888,0.9942,1.0001,1.004,1.0069,1.0129,1.0168,1.0185,1.0225,1.0285,1.0328,1.0393,1.0446,1.0551,1.0581,1.0641,1.0639,1.0699,1.0648,1.0647,1.0644,1.0642,1.0649,1.0708,1.071,1.0711,1.0712,0,1.0008,1.0019,1.0076,1.0139,1.0187,1.0237,1.0284,1.0316,1.034,1.0386,1.0455,1.0497,1.0579,1.0645,1.0708,1.0735,1.0729,1.0728,1.0745,1.0746,1.074,1.0748,1.0566,1.0724,1.0723,1.0722,1.0721,1.0721,1.0093,1.0143,1.0195,1.026,1.0299,1.0345,1.0396,1.0425,1.0483,1.0553,1.0559,1.0634,1.0683,1.0768,1.0799,1.0859,1.0841,1.0865,1.0872,1.0878,1.0885,1.073,1.087,1.0869,1.0869,1.0869,1.0869,0,1.0216,1.025,1.031,1.038,1.0433,1.0425,1.048,1.0524,1.0591,1.0638,1.0693,1.0775,1.084,1.0877,1.0943,1.0985,1.0984,1.1002,1.0999,1.1007,1.0894,1.0875,1.1002,1.1001,1.1001,1.1001,1.1001,1.1001,1.0286,1.0372,1.039,1.0497,1.053,1.0606,1.0639,1.0683,1.0721,1.0814,1.087,1.0894,1.0939,1.1009,1.107,1.108,1.1105,1.1126,1.1133,1.1028,1.1014,1.1001,1.0983,1.113,1.1131,1.1242,1.1243,1.1243]}]]